EW2546 Weather Reports


Display with metric or nautical units.
time (UTC)temp
F
wind
direction
speed
MPH
gust
MPH
rain 1hr
in
rain 24hr
in
rain mn
in
humidity
%
barometer
mb
20260904181606 74 0 0.0 0.0 0.00 0.02 0.01 82 1008.3
20260904181025 74 0 0.0 0.0 0.00 0.02 0.01 81 1008.1
20260904180531 74 0 0.0 0.0 0.00 0.02 0.01 79 1008.1
20260904180056 75 0 0.0 0.0 0.00 0.02 0.01 77 1008.2
20260904175525 75 0 0.0 0.0 0.00 0.02 0.01 77 1008.1
20260904175025 75 0 0.0 0.0 0.00 0.02 0.01 80 1008.1
20260904174552 75 0 0.0 0.0 0.00 0.02 0.01 76 1008.3
20260904174025 76 0 0.0 0.0 0.00 0.02 0.01 74 1008.2
20260904173527 76 0 0.0 0.0 0.00 0.02 0.01 72 1008.4
20260904173048 75 0 0.0 0.0 0.00 0.02 0.01 72 1008.4
20260904172525 75 0 0.0 0.0 0.00 0.02 0.01 74 1008.5
20260904172024 74 0 0.0 0.0 0.00 0.02 0.01 82 1008.5
20260904171610 74 0 0.0 0.0 0.00 0.02 0.01 74 1008.6
20260904171024 74 0 0.0 0.0 0.00 0.02 0.01 79 1008.7
20260904170525 74 0 0.0 0.0 0.00 0.02 0.01 79 1008.6
20260904170044 74 0 0.0 0.0 0.00 0.02 0.01 76 1008.7
20260904165524 74 0 0.0 0.0 0.00 0.02 0.01 79 1008.7
20260904165025 74 0 0.0 0.0 0.00 0.02 0.01 82 1008.8
20260904164600 74 0 0.0 0.0 0.00 0.02 0.01 81 1008.8
20260904164027 74 0 0.0 0.0 0.00 0.02 0.01 81 1008.9
20260904163527 74 0 0.0 0.0 0.00 0.02 0.01 78 1008.9
20260904163046 74 0 0.0 0.0 0.00 0.02 0.01 74 1008.9
20260904162524 74 0 0.0 0.0 0.00 0.02 0.01 81 1008.9
20260904162025 73 0 0.0 0.0 0.00 0.02 0.01 81 1009.0
20260904161554 74 0 0.0 0.0 0.00 0.02 0.01 81 1009.1
20260904161025 73 0 0.0 0.0 0.00 0.02 0.01 80 1009.2
20260904160524 73 0 0.0 0.0 0.00 0.02 0.01 77 1009.1
20260904160052 73 0 0.0 0.0 0.00 0.02 0.01 82 1009.1
20260904155529 73 0 0.0 0.0 0.00 0.02 0.01 80 1009.3
20260904155028 73 0 0.0 0.0 0.00 0.02 0.01 77 1009.3
20260904154552 73 0 0.0 0.0 0.00 0.02 0.01 83 1009.4
20260904154028 72 0 0.0 0.0 0.00 0.02 0.01 82 1009.4
20260904153527 72 0 0.0 0.0 0.00 0.02 0.01 80 1009.4
20260904153055 72 0 0.0 0.0 0.00 0.02 0.01 83 1009.5
20260904152524 71 0 0.0 0.0 0.00 0.02 0.01 80 1009.5
20260904152025 71 0 0.0 0.0 0.00 0.02 0.01 83 1009.6
20260904151541 71 0 0.0 0.0 0.00 0.02 0.01 85 1009.6
20260904151027 70 0 0.0 0.0 0.00 0.02 0.01 87 1009.7
20260904150525 70 0 0.0 0.0 0.00 0.02 0.01 87 1009.8
20260904150050 69 0 0.0 0.0 0.00 0.02 0.01 89 1009.7
20260904145525 69 0 0.0 0.0 0.00 0.02 0.01 87 1009.8
20260904145031 68 0 0.0 0.0 0.00 0.02 0.01 91 1009.8
20260904144548 68 0 0.0 0.0 0.00 0.02 0.01 92 1009.8
20260904144028 68 0 0.0 0.0 0.00 0.02 0.01 92 1009.9
20260904143527 67 0 0.0 0.0 0.00 0.02 0.01 93 1010.0
20260904143047 67 0 0.0 0.0 0.00 0.02 0.01 94 1010.0
20260904142525 66 0 0.0 0.0 0.00 0.02 0.01 94 1010.1
20260904142025 66 0 0.0 0.0 0.00 0.02 0.01 95 1010.0
20260904141552 66 0 0.0 0.0 0.00 0.02 0.01 95 1010.1
20260904141026 66 0 0.0 0.0 0.00 0.02 0.01 96 1010.0
20260904140523 66 0 0.0 0.0 0.00 0.02 0.01 96 1010.1
20260904140051 65 0 0.0 0.0 0.00 0.02 0.01 96 1010.1
20260904135531 65 0 0.0 0.0 0.00 0.02 0.01 96 1010.1
20260904135029 65 0 0.0 0.0 0.00 0.02 0.01 96 1010.1
20260904134552 64 0 0.0 0.0 0.00 0.02 0.01 96 1010.1
20260904134027 64 0 0.0 0.0 0.00 0.02 0.01 96 1010.2
20260904133525 64 0 0.0 0.0 0.00 0.02 0.01 96 1010.3
20260904133057 64 0 0.0 0.0 0.00 0.02 0.01 96 1010.3
20260904132526 64 0 0.0 0.0 0.00 0.02 0.01 96 1010.3
20260904132025 63 0 0.0 0.0 0.00 0.02 0.01 96 1010.2
20260904131543 63 0 0.0 0.0 0.00 0.02 0.01 96 1010.2
20260904131026 63 0 0.0 0.0 0.00 0.02 0.01 96 1010.2
20260904130525 63 0 0.0 0.0 0.00 0.02 0.01 96 1010.2
20260904130050 63 0 0.0 0.0 0.00 0.02 0.01 96 1010.3
20260904125525 63 0 0.0 0.0 0.00 0.02 0.01 96 1010.4
20260904125031 63 0 0.0 0.0 0.00 0.02 0.01 96 1010.3
20260904124550 63 0 0.0 0.0 0.00 0.02 0.01 96 1010.3
20260904124025 63 0 0.0 0.0 0.00 0.02 0.01 97 1010.2
20260904123527 63 0 0.0 0.0 0.00 0.02 0.01 96 1010.3
20260904123043 63 0 0.0 0.0 0.00 0.02 0.01 96 1010.3
20260904122528 63 0 0.0 0.0 0.00 0.02 0.01 97 1010.3
20260904122024 63 0 0.0 0.0 0.00 0.02 0.01 96 1010.2
20260904121549 63 0 0.0 0.0 0.00 0.02 0.01 96 1010.3
20260904121030 63 0 0.0 0.0 0.00 0.02 0.01 97 1010.3
20260904120527 62 0 0.0 0.0 0.00 0.02 0.01 97 1010.3
20260904120057 62 0 0.0 0.0 0.00 0.02 0.01 96 1010.3
20260904115528 62 0 0.0 0.0 0.00 0.03 0.01 96 1010.3
20260904115026 62 0 0.0 0.0 0.00 0.03 0.01 96 1010.2
20260904114548 62 0 0.0 0.0 0.00 0.03 0.01 96 1010.3
20260904114030 62 0 0.0 0.0 0.00 0.03 0.01 97 1010.3
20260904113525 62 0 0.0 0.0 0.00 0.03 0.01 97 1010.2
20260904113052 62 0 0.0 0.0 0.00 0.03 0.01 97 1010.2
20260904112527 62 0 0.0 0.0 0.00 0.03 0.01 97 1010.2
20260904112024 62 0 0.0 0.0 0.00 0.03 0.01 96 1010.1
20260904111554 62 0 0.0 0.0 0.00 0.03 0.01 96 1010.0
20260904111025 62 0 0.0 0.0 0.00 0.03 0.01 96 1010.0
20260904110525 62 0 0.0 0.0 0.00 0.03 0.01 96 1009.9
20260904110046 62 0 0.0 0.0 0.00 0.03 0.01 96 1009.9
20260904105528 62 0 0.0 0.0 0.00 0.03 0.01 96 1009.9
20260904105028 62 0 0.0 0.0 0.01 0.03 0.01 96 1009.8
20260904104604 62 0 0.0 0.0 0.01 0.03 0.01 96 1009.8
20260904104028 62 0 0.0 0.0 0.01 0.03 0.01 96 1009.8
20260904103525 62 0 0.0 0.0 0.01 0.03 0.01 96 1009.8
20260904103042 62 0 0.0 0.0 0.01 0.03 0.01 96 1009.7
20260904102526 62 0 0.0 0.0 0.01 0.03 0.01 96 1009.6
20260904102030 62 0 0.0 0.0 0.01 0.03 0.01 96 1009.7
20260904101553 62 0 0.0 0.0 0.01 0.03 0.01 96 1009.7
20260904101025 62 0 0.0 0.0 0.01 0.03 0.01 96 1009.7
20260904100525 62 0 0.0 0.0 0.01 0.03 0.01 96 1009.8
20260904100100 62 0 0.0 0.0 0.01 0.03 0.01 96 1009.8
20260904095525 62 0 0.0 0.0 0.01 0.12 0.01 96 1009.8
20260904095024 62 0 0.0 0.0 0.00 0.11 0.00 96 1009.7
20260904094556 62 0 0.0 0.0 0.00 0.11 0.00 96 1009.8
20260904094024 62 0 0.0 0.0 0.00 0.11 0.00 96 1009.7
20260904093530 62 0 0.0 0.0 0.00 0.11 0.00 96 1009.6
20260904093043 62 0 0.0 0.0 0.00 0.11 0.00 96 1009.6
20260904092524 62 0 0.0 0.0 0.00 0.11 0.00 96 1009.7
20260904092024 62 0 0.0 0.0 0.00 0.11 0.00 96 1009.6
20260904091551 62 0 0.0 0.0 0.00 0.11 0.00 96 1009.7
20260904091025 62 0 0.0 0.0 0.00 0.11 0.00 96 1009.7
20260904090530 62 0 0.0 0.0 0.00 0.11 0.00 96 1009.7
20260904090046 62 0 0.0 0.0 0.00 0.11 0.00 96 1009.7
20260904085527 62 0 0.0 0.0 0.00 0.11 0.00 96 1009.7
20260904085029 62 0 0.0 0.0 0.00 0.11 0.00 96 1009.7
20260904084543 62 0 0.0 0.0 0.00 0.11 0.00 96 1009.5
20260904084024 62 0 0.0 0.0 0.00 0.11 0.00 96 1009.4
20260904083527 62 0 0.0 0.0 0.00 0.11 0.00 96 1009.4
20260904083056 62 0 0.0 0.0 0.00 0.11 0.00 96 1009.3
20260904082531 62 0 0.0 0.0 0.00 0.11 0.00 96 1009.5
20260904082027 62 0 0.0 0.0 0.00 0.11 0.00 96 1009.5
20260904081548 62 0 0.0 0.0 0.00 0.11 0.00 96 1009.6
20260904081024 62 0 0.0 0.0 0.00 0.11 0.00 96 1009.6
20260904080525 62 0 0.0 0.0 0.00 0.11 0.00 96 1009.7
20260904080045 62 0 0.0 0.0 0.00 0.11 0.00 96 1009.8
20260904075524 62 0 0.0 0.0 0.00 0.15 0.00 96 1010.0
20260904075025 62 0 0.0 0.0 0.00 0.15 0.00 96 1009.9
20260904074605 62 0 0.0 0.0 0.00 0.15 0.00 96 1009.9
20260904074030 62 0 0.0 0.0 0.00 0.15 0.00 96 1009.8
20260904073524 62 0 0.0 0.0 0.00 0.15 0.00 96 1009.8
20260904073051 62 0 0.0 0.0 0.00 0.15 0.00 96 1009.7
20260904072525 62 0 0.0 0.0 0.00 0.15 0.00 96 1009.8
20260904072024 62 0 0.0 0.0 0.00 0.15 0.00 96 1009.9
20260904071552 62 0 0.0 0.0 0.00 0.15 0.00 96 1010.0
20260904071027 62 0 0.0 0.0 0.00 0.15 0.00 96 1009.9
20260904070528 62 0 0.0 0.0 0.00 0.15 0.00 96 1010.0
20260904070046 62 0 0.0 0.0 0.00 0.15 0.00 96 1009.9
20260904065533 62 0 0.0 0.0 0.00 0.15 0.00 96 1010.0
20260904065026 62 0 0.0 0.0 0.00 0.15 0.00 96 1010.2
20260904064543 62 0 0.0 0.0 0.00 0.15 0.00 96 1010.3
20260904064029 62 0 0.0 0.0 0.00 0.15 0.00 96 1010.2
20260904063524 62 0 0.0 0.0 0.00 0.15 0.00 96 1010.3
20260904063051 62 0 0.0 0.0 0.00 0.15 0.00 96 1010.4
20260904062531 62 0 0.0 0.0 0.00 0.15 0.00 96 1010.5
20260904062030 62 0 0.0 0.0 0.00 0.15 0.00 96 1010.6
20260904061549 62 0 0.0 0.0 0.00 0.15 0.00 96 1010.7
20260904061029 62 0 0.0 0.0 0.00 0.15 0.00 96 1010.7
20260904060525 62 0 0.0 0.0 0.00 0.15 0.00 96 1010.8
20260904060112 62 0 0.0 0.0 0.00 0.15 0.00 96 1010.8
20260904055525 62 0 0.0 0.0 0.00 0.15 0.00 96 1010.9
20260904055024 62 0 0.0 0.0 0.00 0.15 0.00 96 1010.9
20260904054545 62 0 0.0 0.0 0.00 0.15 0.00 96 1011.0
20260904054024 62 0 0.0 0.0 0.00 0.15 0.00 96 1011.1
20260904053527 62 0 0.0 0.0 0.00 0.15 0.00 96 1011.1
20260904053134 62 0 0.0 0.0 0.00 0.15 0.00 96 1011.2
20260904052524 62 0 0.0 0.0 0.00 0.15 0.00 96 1011.3
20260904052026 62 0 0.0 0.0 0.00 0.15 0.00 96 1011.4
20260904051607 62 0 0.0 0.0 0.00 0.15 0.00 96 1011.3
20260904051027 62 0 0.0 0.0 0.00 0.15 0.00 96 1011.4
20260904050530 62 0 0.0 0.0 0.00 0.15 0.00 96 1011.4
20260904050043 62 0 0.0 0.0 0.00 0.15 0.00 96 1011.4
20260904045525 62 0 0.0 0.0 0.00 0.15 0.00 96 1011.5
20260904045026 62 0 0.0 0.0 0.00 0.15 0.00 96 1011.5
20260904044556 62 0 0.0 0.0 0.00 0.15 0.00 96 1011.6
20260904044025 62 0 0.0 0.0 0.00 0.15 0.00 96 1011.5
20260904043526 62 0 0.0 0.0 0.00 0.15 0.00 96 1011.6
20260904043049 62 0 0.0 0.0 0.00 0.15 0.00 96 1011.6
20260904042525 62 0 0.0 0.0 0.00 0.15 0.00 96 1011.6
20260904042027 62 0 0.0 0.0 0.00 0.15 0.00 96 1011.6
20260904041546 62 0 0.0 0.0 0.00 0.15 0.00 96 1011.6
20260904041024 62 0 0.0 0.0 0.00 0.15 0.00 96 1011.7
20260904040524 62 0 0.0 0.0 0.00 0.15 0.00 96 1011.6
20260904040048 62 0 0.0 0.0 0.00 0.15 0.00 96 1011.7
20260904035530 62 0 0.0 0.0 0.00 0.15 0.15 96 1011.7
20260904035028 63 0 0.0 0.0 0.00 0.15 0.15 96 1011.7
20260904034549 63 0 0.0 0.0 0.00 0.15 0.15 96 1011.7
20260904034025 63 0 0.0 0.0 0.00 0.15 0.15 96 1011.9
20260904033526 63 0 0.0 0.0 0.00 0.15 0.15 96 1011.9
20260904033100 63 0 0.0 0.0 0.00 0.15 0.15 96 1012.1
20260904032526 63 0 0.0 0.0 0.00 0.15 0.15 96 1012.0
20260904032025 63 0 0.0 0.0 0.00 0.15 0.15 96 1011.9
20260904031543 63 0 0.0 0.0 0.00 0.15 0.15 96 1011.8
20260904031024 63 0 0.0 0.0 0.00 0.15 0.15 96 1011.9
20260904030525 63 0 0.0 0.0 0.00 0.15 0.15 96 1011.9
20260904030044 63 0 0.0 0.0 0.00 0.15 0.15 96 1011.9
20260904025524 63 0 0.0 0.0 0.00 0.15 0.15 96 1011.7
20260904025026 63 0 0.0 0.0 0.00 0.15 0.15 96 1011.9
20260904024601 63 0 0.0 0.0 0.00 0.15 0.15 96 1012.1
20260904024026 63 0 0.0 0.0 0.00 0.15 0.15 96 1011.9
20260904023524 63 0 0.0 0.0 0.01 0.15 0.15 96 1011.9
20260904023054 63 0 0.0 0.0 0.01 0.15 0.15 96 1012.1
20260904022524 63 0 0.0 0.0 0.01 0.15 0.15 96 1012.3
20260904022025 63 0 0.0 0.0 0.01 0.15 0.15 96 1012.1
20260904021544 63 0 0.0 0.0 0.01 0.15 0.15 96 1012.3
20260904021024 63 0 0.0 0.0 0.01 0.15 0.15 96 1012.3
20260904020524 63 0 0.0 0.0 0.01 0.15 0.15 96 1012.5
20260904020042 63 0 0.0 0.0 0.01 0.15 0.15 96 1012.4
20260904015523 63 0 0.0 0.0 0.01 0.15 0.15 96 1012.3
20260904015025 63 0 0.0 0.0 0.01 0.15 0.15 96 1012.4
20260904014602 63 0 0.0 0.0 0.01 0.15 0.15 96 1012.4
20260904014028 63 0 0.0 0.0 0.01 0.15 0.15 96 1012.4
20260904013525 63 0 0.0 0.0 0.00 0.14 0.14 96 1012.4
20260904013051 63 0 0.0 0.0 0.00 0.14 0.14 96 1012.4
20260904012525 63 0 0.0 0.0 0.00 0.14 0.14 96 1012.3
20260904012028 63 0 0.0 0.0 0.00 0.14 0.14 96 1012.3
20260904011551 63 0 0.0 0.0 0.00 0.14 0.14 96 1012.0
20260904011027 63 0 0.0 0.0 0.00 0.14 0.14 95 1012.1
20260904010530 63 0 0.0 0.0 0.00 0.14 0.14 95 1012.3
20260904010046 63 0 0.0 0.0 0.00 0.14 0.14 95 1012.2
20260904005528 63 0 0.0 0.0 0.00 0.14 0.14 95 1012.2
20260904005028 63 0 0.0 0.0 0.00 0.14 0.14 95 1012.1
20260904004544 63 0 0.0 0.0 0.00 0.14 0.14 95 1012.2
20260904004027 63 0 0.0 0.0 0.00 0.14 0.14 95 1012.4
20260904003532 63 0 0.0 0.0 0.00 0.14 0.14 95 1012.3
20260904003051 63 0 0.0 0.0 0.00 0.14 0.14 95 1012.4
20260904002525 63 0 0.0 0.0 0.00 0.14 0.14 95 1012.5
20260904002027 63 0 0.0 0.0 0.00 0.14 0.14 95 1012.5
20260904001550 63 0 0.0 0.0 0.00 0.14 0.14 95 1012.6
20260904001032 63 0 0.0 0.0 0.00 0.14 0.14 95 1012.4
20260904000527 63 0 0.0 0.0 0.00 0.14 0.14 95 1012.4
20260904000110 63 0 0.0 0.0 0.00 0.14 0.14 95 1012.6
20260903235525 64 0 0.0 0.0 0.00 0.14 0.14 95 1012.5
20260903235024 64 0 0.0 0.0 0.00 0.14 0.14 95 1012.4
20260903234543 64 0 0.0 0.0 0.00 0.14 0.14 95 1012.5
20260903234026 64 0 0.0 0.0 0.00 0.14 0.14 95 1012.4
20260903233529 64 0 0.0 0.0 0.00 0.14 0.14 95 1012.5
20260903233101 64 0 0.0 0.0 0.00 0.14 0.14 95 1012.5
20260903232525 64 0 0.0 0.0 0.00 0.14 0.14 95 1012.6
20260903232027 64 0 0.0 0.0 0.00 0.14 0.14 95 1012.5
20260903231549 64 0 0.0 0.0 0.00 0.14 0.14 95 1012.5
20260903231027 64 0 0.0 0.0 0.00 0.14 0.14 95 1012.5
20260903230526 64 0 0.0 0.0 0.00 0.14 0.14 95 1012.7
20260903230105 64 0 0.0 0.0 0.00 0.14 0.14 95 1012.7
20260903225526 64 0 0.0 0.0 0.00 0.14 0.14 95 1012.7
20260903225024 64 0 0.0 0.0 0.00 0.14 0.14 95 1012.7
20260903224549 64 0 0.0 0.0 0.00 0.14 0.14 95 1012.6
20260903224025 64 0 0.0 0.0 0.00 0.14 0.14 95 1012.6
20260903223531 64 0 0.0 0.0 0.00 0.14 0.14 95 1012.7
20260903223113 64 0 0.0 0.0 0.00 0.14 0.14 95 1012.7
20260903222524 64 0 0.0 0.0 0.00 0.14 0.14 95 1012.7
20260903222026 64 0 0.0 0.0 0.00 0.14 0.14 95 1012.8
20260903221544 64 0 0.0 0.0 0.00 0.14 0.14 95 1012.7
20260903221023 64 0 0.0 0.0 0.00 0.14 0.14 95 1012.8
20260903220524 64 0 0.0 0.0 0.00 0.14 0.14 95 1012.7
20260903220043 64 0 0.0 0.0 0.00 0.14 0.14 95 1012.7
20260903215526 64 0 0.0 0.0 0.00 0.14 0.14 95 1012.6
20260903215026 64 0 0.0 0.0 0.00 0.14 0.14 95 1012.5
20260903214601 64 0 0.0 0.0 0.00 0.14 0.14 95 1012.7
20260903214026 64 0 0.0 0.0 0.00 0.14 0.14 95 1012.7
20260903213527 64 0 0.0 0.0 0.00 0.14 0.14 94 1012.7
20260903213104 64 0 0.0 0.0 0.00 0.14 0.14 94 1012.7
20260903212525 64 0 0.0 0.0 0.00 0.14 0.14 94 1012.7
20260903212025 64 0 0.0 0.0 0.00 0.14 0.14 94 1012.8
20260903211544 64 0 0.0 0.0 0.00 0.14 0.14 94 1012.7
20260903211025 64 0 0.0 0.0 0.00 0.14 0.14 94 1012.7
20260903210524 64 0 0.0 0.0 0.00 0.14 0.14 94 1012.7
20260903210106 64 0 0.0 0.0 0.00 0.14 0.14 94 1012.6
20260903205528 64 0 0.0 0.0 0.00 0.14 0.14 94 1012.7
20260903205026 64 0 0.0 0.0 0.00 0.14 0.14 94 1012.7
20260903204550 64 0 0.0 0.0 0.00 0.14 0.14 94 1012.7
20260903204029 64 0 0.0 0.0 0.00 0.14 0.14 94 1012.8
20260903203525 64 0 0.0 0.0 0.00 0.14 0.14 94 1012.8
20260903203049 64 0 0.0 0.0 0.00 0.14 0.14 94 1012.8
20260903202527 64 0 0.0 0.0 0.00 0.14 0.14 94 1012.8
20260903202025 64 0 0.0 0.0 0.00 0.14 0.14 94 1013.0
20260903201546 64 0 0.0 0.0 0.00 0.14 0.14 94 1012.9
20260903201026 64 0 0.0 0.0 0.00 0.14 0.14 94 1012.9
20260903200525 64 0 0.0 0.0 0.00 0.14 0.14 95 1012.9
20260903200042 64 0 0.0 0.0 0.00 0.14 0.14 94 1012.9
20260903195525 64 0 0.0 0.0 0.00 0.14 0.14 94 1013.0
20260903195026 64 0 0.0 0.0 0.00 0.14 0.14 94 1013.1
20260903194550 64 0 0.0 0.0 0.00 0.14 0.14 94 1013.1
20260903194025 64 0 0.0 0.0 0.00 0.14 0.14 94 1013.1
20260903193533 64 0 0.0 0.0 0.00 0.14 0.14 94 1013.2
20260903193047 64 0 0.0 0.0 0.00 0.14 0.14 94 1013.3
20260903192524 64 0 0.0 0.0 0.00 0.14 0.14 94 1013.3
20260903192024 64 0 0.0 0.0 0.00 0.14 0.14 94 1013.4
20260903191542 64 0 0.0 0.0 0.00 0.14 0.14 94 1013.4
20260903191027 64 0 0.0 0.0 0.00 0.14 0.14 94 1013.5
20260903190524 64 0 0.0 0.0 0.00 0.14 0.14 94 1013.6
20260903190046 64 0 0.0 0.0 0.00 0.14 0.14 94 1013.6
20260903185525 64 0 0.0 0.0 0.00 0.14 0.14 94 1013.6
20260903185030 64 0 0.0 0.0 0.00 0.14 0.14 94 1013.7
20260903184553 64 0 0.0 0.0 0.00 0.14 0.14 93 1013.8
20260903184031 64 0 0.0 0.0 0.00 0.14 0.14 93 1013.9
20260903183529 64 0 0.0 0.0 0.00 0.14 0.14 94 1014.0
20260903183043 64 0 0.0 0.0 0.00 0.14 0.14 94 1014.0
20260903182530 64 0 0.0 0.0 0.00 0.14 0.14 94 1013.9
20260903182026 64 0 0.0 0.0 0.00 0.14 0.14 94 1013.9